SL-8 DEB, 1478

Orbit data source: Space-Track

SL-8 DEB, 1478 is space debris in LEO originally from a launch on Mon, 15 Mar 1965 UTC launched from the Tyuratam Missile And Space Complex (TTMTR). Debris objects in space refer to the collection of defunct objects orbiting the Earth. Examples of debris include non-operational satellites, rocket bodies, and fragments generated from explosions, collisions, or faulty payload assembly.

Loading next visibility...
Identifier
1478, 1965-020BC
Orbit
LEO
Last TLE update
20 hours ago
Origin
Manufacturer
Unknown
Mission
Spacecraft
Bus & Motor
Unknown
Mass
Unknown
Launch date (UTC)
1965-03-15 (60 years ago)
Launch vehicle
Unknown
Launch site
Tyuratam Missile And Space Complex (TTMTR)
Object type
Payload
Rocket body
Debris
Shape & HBR
Unknown
Radar Cross Section
Medium (>0.1 m² and <1 m²)

Expand to show TLE details & history

TLE from 20 hours ago
0 SL-8 DEB
1 01478U 65020BC  25186.07494855  .00000772  00000-0  42607-3 0  9995
2 01478  56.0778  45.1796 0598340  27.3168 335.7956 13.53978121877823
Epoch: 2025-07-05T01:47Z
TLE epoch observation values (Epoch: 2025-07-05T01:47:55.554Z)
Latitude
-0.00007°
Longitude
94.87988°
Altitude
657.825 km
Speed
7.729 km/s
True Right ascension
03h 00m 43s
True Declination
0° 00' 00"
Sunlit
Object was in daylight at epoch
Visualization orbit readout
Latitude
-16.16774°
Longitude
-76.7208°
Altitude
1,500.62 km
Speed
6.901 km/s
Apparent Right ascension
17h 56m 14s
Apparent Declination
-36° 53' 38"
Sunlit
Object is in full shadow
Visualization observer readout
Local Sidereal Time
10:11:12
Azimuth
108.027° ESE
Elevation
-41.04°
Doppler factor
1
Orbital elements
Apogee altitude
1,502.369 km
Perigee altitude
612.565 km
Semi-major axis
7,435.604 km
Eccentricity
0.05983
Inclination
56.0778°
RAAN
45.1796°
Arg. of periapsis
27.3168°
True anomaly
Unknown
Mean anomaly
335.7956°
Eccentric anomaly
Unknown
Mean motion
3.38508 °/min
Orbital period
106.35 mins
BSTAR
0.00042607
Loading maneuver chart data...
Loading SW <> Apogee altitude chart data...
Loading historical data...
Loading historical data...
Loading historical data...
Loading historical data...
Loading historical data...
Loading historical data...
Loading historical data...

SL-8 DEB Visibility forecast

Observer location: undefined°, undefined°

Span
Click to sort rows by Start time (UTC) header in descending order
Start Az.
Max El. time (UTC)
Max El. Az.
Max El.
End time (UTC)
End Az.
12 mins2025-07-05 23:31:03.162Z325.13° NNW2025-07-05 23:36:03.162Z25.075° NE35.961°2025-07-05 23:43:03.162Z108.441° ESE
12 mins2025-07-06 01:23:03.162Z295.401° NW2025-07-06 01:27:03.162Z240.354° WSW36.595°2025-07-06 01:35:03.162Z161.512° S
8 mins2025-07-06 16:57:03.162Z226.912° WSW2025-07-06 17:00:03.162Z246.974° WSW44.111°2025-07-06 17:05:03.162Z44.382° NE
5 mins2025-07-06 18:50:03.162Z313.348° NW2025-07-06 18:52:03.162Z346.189° N18.758°2025-07-06 18:55:03.162Z23.694° NE
4 mins2025-07-06 20:43:03.162Z351.507° N2025-07-06 20:44:03.162Z3.861° NNE14.545°2025-07-06 20:47:03.162Z36.401° NE
|